Kosmos-2585

operational
NORAD ID: 63288 Int'l Des: 2025-054 Owner: VVKOV Country: RU
LEOCIRCULARPOLAR

Über Kosmos-2585

Beschreibung wird geladen...

Live-Position

3D-Globus wird geladen...

Nächste Überflüge

Höhenverlauf

Altitude vs Time

uPlot chart will show altitude changes over time

Zweizeiliger Elementsatz

1 63288U 25054A 25339.22331200 .00000058 00000-0 34314-3 0 9999
2 63288 82.4939 199.3481 0024753 96.6544 263.7354 12.42913588 32765
Epoch: 5. Dez. 2025 • Age: 57 hours

Aktueller Status

Höhe 1513.5 km
Geschwindigkeit 7.10 km/s
Subsatellitenpunkt -28.38°S, 87.82°E
Startdatum 16. März 2025
Alter 0.7 years
Typ other

Technische Details

Klassifizierung Payload
Masse 280.00 kg
Trockenmasse 280.00 kg
Gesamtmasse 280.00 kg
Länge 1.60 m
Durchmesser 0.80 m
Spannweite 7.00 m
Form Cyl + Ant
Hersteller RESH
Bus-Typ Strela-3M
Phasenstatus In Orbit
Besitzer/Staat VVKOV/RU

Große Konstellationen

Loading constellations...